Location: Devore Heights
(34.2372°N, 117.4156°W)
Time: 08:20:49
(UTC+00:00)

A-11 Canister half - Pass Details

Date: 17 September 2024
Orbit: 1515 x 1684 km, 47.2° (Epoch: 07 October)

Event Time Altitude Azimuth Distance (km) Brightness Sun altitude
Rises 08:09:09 0° 305° (NW) 4,660 11.7 -53.3°
Enters shadow 08:11:43 - 305° (NW) 3,823 11.2 -53.2°
Reaches altitude 10° 08:12:11 10° 306° (NW) 3,676 - -53.2°
Maximum altitude 08:21:27 89° 216° (SW) 1,529 - -52.7°
Drops below altitude 10° 08:30:53 10° 129° (SE) 3,735 - -52.1°
Sets 08:33:59 0° 129° (SE) 4,738 - -51.9°
